Regional Weather Roundup
Issued by NWS

Home | Current Version | Previous Version | Graphics & Text | Print | Product List | Glossary Off
Versions: 1 2 3 4 5 6 7 8 9 10 11 12 13 14 15 16 17 18 19 20 21 22 23 24 25 26 27 28 29 30 31 32 33 34 35 36 37 38 39 40 41 42 43 44 45 46 47 48 49 50

265
ASUS43 KTOP 090308
RWRKS

WEATHER ROUNDUP FOR KANSAS
NATIONAL WEATHER SERVICE GOODLAND KS
900 PM CST THU DEC 08 2016

NOTE:  "FAIR" INDICATES FEW OR NO CLOUDS BELOW 12,000 FEET WITH NO
SIGNIFICANT WEATHER AND/OR OBSTRUCTIONS TO VISIBILITY.

KSZ001>006-013>018-027>032-041>047-090400-
NORTHWEST KANSAS

CITY           SKY/WX    TMP DP  RH WIND       PRES   REMARKS
GOODLAND       CLOUDY     8   1  73 S9        30.45F
HAYS           CLOUDY    11   5  77 CALM      30.62F
HILL CITY      CLOUDY     2  -3  80 CALM      30.59F
RUSSELL        CLEAR     14   6  70 N5        30.62F
$$

KSZ061>065-074>080-084>089-090400-
SOUTHWEST KANSAS

CITY           SKY/WX    TMP DP  RH WIND       PRES   REMARKS
DODGE CITY     CLOUDY    14   6  70 NW3       30.58F
ELKHART          N/A     20  -2  38 SE10        N/A  WCI   9
GARDEN CITY    CLOUDY    18   7  62 SE6       30.54F
GREAT BEND     CLEAR     13   7  77 NE3       30.63S
LIBERAL        CLOUDY    25   1  36 SE8       30.55F
PRATT          CLOUDY    13   4  68 NW3       30.63S
$$

KSZ066>073-081>083-090>101-090400-
SOUTHEAST KANSAS

CITY           SKY/WX    TMP DP  RH WIND       PRES   REMARKS
CHANUTE        CLEAR     19  11  70 NW7       30.66S
COFFEYVILLE    CLEAR     20  11  68 NW6       30.68S
HUTCHINSON     CLEAR     14   7  73 CALM      30.66R
MEDICINE LODGE   N/A     17   5  59 CALM      30.65R
NEWTON         CLEAR     17   9  70 NW5       30.65
PARSONS        CLEAR     18  11  74 N5        30.68R
WICHITA INTL   CLEAR     21  10  62 N6        30.66S
WICHITA JABRA  CLEAR     17   9  70 NW6       30.65S
WICHITA MCCONL CLEAR     18   9  68 N7        30.65S
WINFIELD       CLEAR     19   9  65 N6        30.67S
$$

KSZ007>012-019>026-033>040-048>060-102>105-090400-
NORTHEAST KANSAS

CITY           SKY/WX    TMP DP  RH WIND       PRES   REMARKS
CONCORDIA      CLEAR     16   7  67 CALM      30.64S
EMPORIA        CLEAR     16  10  77 W5        30.65S
LAWRENCE       CLEAR     14   8  77 CALM      30.67R
MANHATTAN      CLEAR     16   9  74 CALM      30.67S
MARYSVILLE     CLEAR     14   9  79 N5        30.65R
OLATHE IND     CLEAR     18  10  71 W5        30.65S
OLATHE EXE     CLEAR     18   9  68 NW3       30.64R
SALINA         CLEAR     16   8  71 W8        30.67S
TOPEKA BILLARD CLEAR     19  10  68 W3        30.67R
TOPEKA FORBES  CLEAR     16   8  71 W6        30.65S
$$




USA.gov is the U.S. government's official web portal to all federal, state and local government web resources and services.